Location: Haram ta Haram Freeway
(35.0583°N, 51.4202°E)
Time: 03:09:40
(UTC+04:30)

N. Korean satellite - Visible Passes

Search period start: 28 July 2021 00:00
Search period end: 07 August 2021 00:00
Orbit: 451 x 497 km, 97.2° (Epoch: 26 July)

Date Brightness Start Highest point End Pass type
(mag) Time Alt. Az. Time Alt. Az. Time Alt. Az.
28 Jul 9.1 05:41:05 10° NE 05:43:56 22° E 05:46:45 10° SSE visible
01 Aug 9.6 05:25:25 10° ENE 05:27:12 13° E 05:28:58 10° SE visible
04 Aug 9.4 05:35:32 10° NE 05:38:03 18° E 05:40:32 10° SE visible
